Tracking 18850 objects as of 22-Nov-2017
HD Live streaming from Space Station
objects crossing your sky now

NAVSTAR 68 (USA 242)

Track NAVSTAR 68 (USA 242) now!
NAVSTAR 68 (USA 242) is classified as:


NORAD ID: 39166
Int'l Code: 2013-023A
Perigee: 20,057.0 km
Apogee: 20,321.7 km
Inclination: 55.9 °
Period: 718.0 minutes
Semi major axis: 26560 km
RCS: 0.2666 m2 (medium)
Launch date: May 15, 2013
Source: United States (US)
Launch site: AIR FORCE EASTERN TEST RANGE (AFETR)
PRN: 27

NAVSTAR 68 (USA 242) will become the fourth member with the latest enhancements to increase accuracy and security to populate the network since 2010.
aabbcc
Your satellite tracking list
Your tracking list is empty




NASA's NSSDC Master Catalog

Two Line Element Set (TLE):
1 39166U 13023A   17325.59848615 -.00000078 +00000-0 +00000-0 0  9994
2 39166 055.9369 033.9430 0049825 018.5968 341.6364 02.00563859033114
Source of the keplerian elements: AFSPC